User: anonymous   Login
Location: Zagreb
(45.8000°N, 16.0000°E)
Time: 00:44:09
(UTC+01:00)
Language:

Transit 2A - Orbit

View from above orbital plane
View from above orbital plane
View from above satellite
View from above satellite

Ground track
Ground track

The orbit data is extracted from the following two-line orbital elements,

1    45U 60007A   20025.39047775 -.00000055  00000-0  13085-4 0  9995
2    45  66.6948  40.5604 0249158  59.6269 302.9208 14.33663285102058
Epoch (UTC): 25 January 2020 09:22:17
Eccentricity: 0.0249158
inclination: 66.6948°
perigee height: 601 km
apogee height: 958 km
right ascension of ascending node: 40.5604°
argument of perigee: 59.6269°
revolutions per day: 14.33663285
mean anomaly at epoch: 302.9208°
orbit number at epoch: 10205

The dashed part of the orbit path shows where the satellite is in the earth's shadow,  

DLR